Погода в Момбасе

Кения     4°02′33″S   39°40′45″E
темп.,
°C
ветер,
м/с
пор.,
м/с
влажн.,
%
обл.,
%
осадки,
мм/ч
давл.,
гПа
погр.,
м
27 ноября, сб
сб2700:00+26юв34838 1.6 1013445
03:00+26ю238327 2.1 1012295
06:00+26ю4581100 0.1 1013486
09:00+28ю457296 0.6 1014789
12:00+29ююв556610 0.1 1012878
15:00+29ююв666992 0.1 1010783
18:00+28юв577466 0.0 1011697
21:00+27ююв5780100 0.0 1013597
28 ноября, вс
вс2800:00+27ююв457921 0.0 1012566
03:00+27ю337877 0.1 1011473
06:00+26юз338232 0.1 1012288
09:00+28ююз237264 0.1 1013585
12:00+29юв53667 0.1 1012824
15:00+29юв666831 0.1 1009712
18:00+28ююв577692 0.0 1010637
21:00+27ююв468121 0.1 1012526
29 ноября, пн
пн2900:00+27ююв46806 0.1 1012513
03:00+26ю338168 0.2 1010446
06:00+26юз12828 0.2 1012205
09:00+28ююв227210 0.3 1013641
12:00+29юв436762 0.3 1012836
15:00+29юв546598 0.3 1009625
18:00+28юв457226 0.0 1009493
21:00+27юв45815 0.0 1012401
30 ноября, вт
вт3000:00+27юв34816 0.0 1011459
03:00+27юв237811 0.1 1010506
06:00+26вюв11805 0.8 101290
09:00+28вюв11695 2.2 1013454
12:00+29вюв536428 0.1 1011806
15:00+29вюв546398 0.1 1009646
18:00+28в457060 0.0 1009480
21:00+27в468075 0.0 1011394
1 декабря, ср
ср100:00+27в348044 0.3 1011400
03:00+25всв128333 2.3 100962
06:00+25сз11867 3.6 101197
09:00+27ссв01745 4.8 1013432
12:00+29вюв546451 0.6 1011784
15:00+29в55645 0.6 1009759
18:00+28в45715 0.0 1009629
21:00+27в35774 0.0 1011363